Wind_Speed
23 24 24 24 25 25 25 25 24 23 20 18 18 17 17 16 16 17 19 21 23 26 28 30 32 34 36 37 39 41 42 43 42 41 42 42 43 41 41 42 43 42 40
22 23 24 24 24 24 25 25 25 24 23 21 20 19 18 17 17 16 17 19 20 23 25 27 29 32 34 36 38 40 41 42 43 42 43 43 43 43 42 43 43 43 42
22 23 23 24 24 24 25 25 25 25 24 24 23 21 20 19 18 17 16 17 18 20 22 24 26 29 31 34 36 38 39 41 42 43 43 44 43 44 43 43 43 42 42
22 23 23 24 24 24 24 25 25 25 25 25 24 23 22 21 19 18 16 16 17 18 19 21 23 26 29 31 33 35 37 39 41 42 43 44 44 44 44 44 44 44 43
22 23 23 24 24 25 25 25 25 25 25 25 25 25 24 23 21 19 17 16 16 16 17 19 21 24 26 29 31 33 35 37 39 40 41 42 43 45 45 45 46 46 46
22 23 23 24 25 25 25 26 26 26 26 26 26 26 25 24 22 20 18 16 15 14 15 16 18 21 24 26 28 31 33 35 36 37 39 40 41 43 44 45 45 46 45
22 23 24 24 25 25 25 25 26 26 26 26 26 26 26 25 24 21 19 17 15 13 12 14 16 18 21 23 26 29 31 33 34 35 37 38 39 41 42 43 44 44 43
23 23 24 24 25 25 25 25 26 26 26 26 26 27 27 26 25 23 21 18 16 14 12 13 14 15 18 20 23 25 27 29 31 33 35 36 37 38 39 40 40 41 42
23 23 24 24 25 25 26 26 25 26 26 26 26 26 26 26 25 24 22 20 17 16 14 13 12 13 14 16 19 22 25 27 30 31 33 34 35 36 37 39 38 38 38
24 24 25 25 25 26 26 26 25 25 26 26 26 26 26 26 25 24 23 21 19 17 15 13 12 11 12 13 15 18 20 23 26 28 30 32 33 33 34 36 36 36 37
25 25 26 26 26 26 26 27 26 26 25 25 26 25 25 25 25 25 23 22 20 19 16 14 13 11 11 11 12 14 17 19 22 24 27 29 31 32 33 33 33 33 34
26 27 27 27 27 27 27 27 27 26 26 26 25 25 25 25 25 25 24 23 21 19 18 16 14 12 11 11 11 11 13 15 18 20 23 26 28 29 30 32 33 33 33
28 28 28 28 28 28 27 27 27 27 26 26 25 25 24 24 24 24 24 23 21 20 18 16 14 12 11 11 10 10 10 11 14 16 18 21 24 25 27 29 31 33 34
30 30 30 29 29 29 28 28 28 27 26 26 25 25 24 24 23 23 23 22 21 20 19 17 15 13 12 11 10 9 8 9 11 13 16 18 20 22 23 26 27 29 31
32 32 32 31 31 30 29 29 29 28 28 27 26 25 24 24 23 23 22 22 21 20 18 17 15 14 12 11 10 9 7 7 9 11 13 16 18 20 22 23 26 28 30
34 33 33 32 31 31 30 29 29 28 28 28 27 26 25 24 24 23 23 22 21 20 19 18 16 14 13 11 10 9 8 8 8 9 11 13 15 18 20 22 23 25 26
34 34 33 32 31 30 30 29 28 28 28 28 28 28 26 25 25 24 23 22 21 20 19 18 16 15 14 12 11 10 9 9 9 10 11 12 13 16 18 20 21 22 23
35 34 33 32 31 31 30 30 29 29 28 28 28 29 28 27 26 25 24 23 22 21 20 19 18 16 15 13 12 11 10 10 10 10 11 11 13 15 16 18 20 20 21
35 34 32 32 31 30 30 30 30 30 29 29 29 29 29 29 28 28 26 25 24 23 22 21 20 18 17 15 14 13 12 12 11 11 12 11 12 13 15 16 18 19 20
35 33 32 31 30 30 30 30 30 30 30 30 31 31 30 30 30 30 29 28 27 26 25 23 22 21 19 18 17 15 14 14 13 13 14 14 14 14 14 15 17 18 19
34 33 32 32 31 31 31 31 32 32 32 32 32 33 32 32 32 32 31 31 30 30 29 27 26 24 23 22 20 19 18 17 16 15 15 15 16 16 17 16 17 18 19
34 33 33 33 33 33 33 33 34 34 34 34 33 34 34 34 34 34 34 34 33 33 33 32 30 29 28 26 25 23 22 21 21 20 20 19 19 19 19 20 20 20 21
35 34 34 34 34 34 34 35 35 35 35 35 36 36 36 36 37 37 37 37 37 37 37 37 36 35 33 32 30 29 27 26 26 25 24 24 23 23 23 23 23 24 24
35 35 35 35 35 36 36 36 37 37 38 38 38 39 39 39 40 40 40 41 41 41 41 41 41 40 40 39 36 34 33 32 31 30 29 28 28 27 27 26 26 27 27
36 37 37 37 38 38 38 39 39 40 40 41 41 42 43 43 44 44 44 45 45 45 45 45 46 45 45 44 44 42 40 38 37 36 34 33 32 32 31 30 30 30 30
38 39 39 39 40 40 41 42 42 43 44 45 46 46 47 48 48 48 49 49 49 49 50 50 50 50 50 50 49 49 47 45 43 42 40 39 38 37 35 34 34 33 33
Wind_Direction
15 15 15 14 13 13 12 10 8 6 3 357 350 342 334 323 308 293 282 272 264 259 255 252 248 245 243 241 241 241 240 239 238 237 236 235 237 237 236 237 237 239 241
10 10 10 10 10 10 9 9 9 8 6 1 355 350 342 333 321 308 293 281 271 263 257 252 248 245 243 242 241 240 239 239 239 238 237 236 236 237 238 239 239 239 240
6 5 6 6 5 6 6 6 7 6 5 2 358 354 348 342 333 321 307 293 280 269 260 253 249 247 244 243 241 240 240 240 240 239 238 238 238 238 239 239 239 239 240
0 0 1 2 2 2 2 3 3 3 2 2 360 356 352 347 340 331 319 305 291 277 266 258 252 248 246 244 242 240 240 239 240 240 239 239 239 238 238 239 240 241 241
354 355 355 356 358 359 359 360 360 360 359 359 359 358 356 352 347 340 331 317 303 287 273 263 256 252 248 245 243 241 240 239 240 240 240 239 239 238 239 240 241 242 243
350 350 351 351 353 354 355 357 357 358 358 358 358 357 356 355 351 346 341 332 318 300 283 272 264 257 251 248 246 244 242 241 240 241 240 240 239 240 240 241 241 242 242
345 347 348 349 350 351 352 353 354 356 357 357 358 358 358 357 355 352 348 343 335 320 300 286 276 265 256 251 248 246 244 242 241 241 240 239 240 240 240 242 242 242 243
341 343 344 346 347 348 349 350 352 353 354 355 357 358 359 358 357 357 354 349 344 336 321 305 291 278 263 256 251 248 246 244 242 241 240 239 239 239 239 240 241 241 241
335 337 340 342 344 345 347 348 349 350 351 353 354 356 358 358 357 357 356 353 347 341 332 320 305 292 274 262 254 249 247 244 242 240 239 237 237 237 237 237 237 239 241
330 332 334 336 338 340 342 344 346 347 349 350 352 353 355 356 356 356 355 354 352 347 341 332 319 304 290 275 264 255 250 247 244 240 237 236 236 236 236 236 236 238 240
326 328 329 331 333 335 337 339 341 342 344 346 348 350 351 353 354 356 356 355 353 351 347 339 330 318 302 291 280 262 252 248 245 240 237 235 236 236 236 235 234 235 236
323 324 325 326 328 330 331 333 335 337 338 340 343 345 348 350 352 354 355 355 354 352 350 345 339 331 322 308 295 277 259 250 245 241 237 237 237 235 234 234 233 234 237
319 319 320 322 323 324 326 327 329 331 333 334 336 339 343 345 348 350 352 352 353 352 351 348 343 337 332 321 308 294 271 253 244 238 236 235 235 235 235 233 233 235 236
315 315 316 317 318 319 320 321 322 324 327 329 331 333 335 339 342 345 347 349 350 350 349 348 346 340 333 328 321 307 285 264 250 243 237 235 235 236 236 233 233 233 233
312 311 312 313 314 315 315 316 317 319 320 323 325 327 329 331 333 337 340 344 346 347 347 346 344 341 336 330 323 313 297 275 260 251 243 237 235 235 236 235 235 233 231
310 309 309 310 310 311 312 312 313 314 316 317 319 321 322 324 326 328 331 334 338 340 341 342 342 340 337 332 323 312 301 289 274 260 252 246 239 233 233 236 234 232 232
308 308 307 307 307 308 309 310 310 310 311 311 312 314 316 317 319 321 322 324 327 330 332 333 334 334 331 327 321 314 305 296 283 268 259 249 239 237 236 235 236 234 233
306 306 305 304 305 305 306 307 308 308 307 307 307 308 309 310 311 312 314 315 317 318 320 321 321 321 322 318 314 309 304 298 285 272 264 255 249 245 239 236 234 233 231
304 304 303 303 303 303 304 305 306 306 306 305 304 304 304 305 305 305 305 306 307 308 309 309 310 309 309 307 304 299 294 291 286 275 265 259 252 247 244 240 236 232 230
301 302 302 302 302 302 303 304 305 305 304 304 303 302 301 300 300 299 299 299 299 299 299 299 299 298 298 296 294 291 287 282 278 273 267 261 256 249 244 240 235 234 233
298 298 299 300 300 301 302 302 303 303 303 302 302 301 300 299 297 296 295 294 293 292 291 291 290 289 288 286 284 281 279 277 273 270 266 261 256 250 247 244 239 236 235
294 295 296 298 298 299 300 301 301 301 302 302 301 300 299 298 297 295 293 291 289 287 286 284 283 282 280 278 276 274 271 269 267 265 262 259 255 250 248 246 243 240 238
292 294 296 297 298 299 299 300 301 301 301 300 300 299 298 297 296 294 292 290 288 285 283 281 279 277 275 273 271 268 266 263 261 259 258 256 254 251 248 245 243 242 240
292 294 296 297 298 299 299 300 300 300 300 300 299 299 298 297 295 293 291 289 287 285 282 279 276 274 271 269 267 264 262 260 258 255 254 253 251 249 247 246 245 243 241
293 295 296 297 298 299 299 300 300 300 299 299 298 298 297 297 295 293 291 289 286 284 281 278 274 271 268 266 264 261 258 256 255 253 251 250 248 247 246 244 243 242 241
293 295 297 297 298 299 300 300 300 300 300 299 299 298 298 297 295 293 291 289 286 283 280 277 274 270 266 263 261 259 256 253 251 250 248 247 246 244 243 242 241 241 241
Height
5811 5807 5802 5798 5793 5788 5783 5778 5773 5769 5765 5761 5758 5755 5752 5749 5747 5745 5744 5744 5744 5745 5746 5748 5751 5754 5758 5762 5766 5771 5776 5782 5788 5793 5797 5802 5807 5812 5817 5821 5826 5830 5834
5812 5808 5803 5799 5794 5789 5784 5779 5774 5769 5765 5761 5757 5753 5749 5746 5743 5740 5738 5737 5737 5737 5738 5739 5742 5745 5748 5752 5757 5761 5766 5771 5777 5782 5787 5792 5797 5802 5807 5811 5816 5820 5824
5813 5808 5804 5799 5794 5790 5785 5780 5775 5770 5765 5760 5756 5751 5747 5743 5739 5736 5733 5731 5730 5730 5730 5732 5734 5737 5740 5743 5747 5751 5756 5761 5766 5771 5776 5781 5786 5792 5797 5802 5806 5810 5815
5813 5808 5804 5799 5794 5790 5785 5780 5775 5769 5764 5759 5754 5750 5745 5740 5736 5732 5729 5726 5725 5724 5724 5725 5727 5729 5731 5734 5738 5742 5746 5751 5755 5760 5766 5771 5776 5781 5786 5792 5796 5801 5805
5812 5808 5803 5799 5794 5789 5784 5779 5774 5769 5763 5758 5753 5748 5743 5738 5733 5729 5725 5722 5720 5718 5718 5719 5720 5722 5724 5726 5729 5733 5737 5741 5745 5750 5755 5760 5766 5770 5776 5782 5786 5790 5795
5811 5807 5802 5798 5793 5788 5783 5778 5773 5768 5763 5757 5752 5747 5742 5736 5731 5726 5722 5719 5716 5714 5713 5713 5714 5715 5716 5718 5721 5725 5728 5732 5736 5741 5745 5750 5755 5760 5765 5770 5775 5780 5785
5810 5805 5801 5796 5792 5787 5782 5777 5772 5767 5762 5757 5752 5746 5741 5735 5730 5725 5721 5717 5713 5711 5709 5709 5709 5709 5710 5711 5714 5716 5719 5723 5727 5732 5736 5741 5745 5751 5755 5760 5764 5769 5774
5808 5804 5799 5795 5791 5786 5781 5776 5771 5766 5762 5756 5751 5746 5740 5735 5729 5724 5720 5715 5712 5709 5707 5705 5704 5703 5704 5705 5707 5709 5712 5715 5719 5723 5727 5731 5735 5739 5744 5750 5754 5758 5763
5805 5801 5797 5793 5789 5785 5780 5775 5770 5765 5761 5756 5751 5746 5740 5735 5730 5724 5719 5715 5711 5707 5705 5702 5701 5700 5699 5700 5701 5703 5705 5707 5710 5714 5718 5722 5726 5730 5735 5740 5744 5748 5753
5802 5799 5795 5791 5787 5782 5778 5774 5769 5764 5759 5755 5750 5745 5740 5735 5730 5724 5720 5715 5711 5707 5703 5700 5698 5697 5696 5695 5696 5697 5699 5700 5703 5706 5710 5713 5717 5721 5726 5731 5735 5740 5744
5799 5795 5792 5788 5784 5780 5776 5771 5767 5763 5758 5753 5749 5744 5740 5735 5729 5724 5720 5715 5711 5706 5703 5699 5697 5695 5693 5693 5692 5692 5693 5695 5697 5699 5703 5706 5710 5714 5718 5722 5727 5731 5735
5795 5791 5788 5784 5780 5777 5773 5769 5764 5760 5756 5752 5747 5743 5739 5734 5729 5724 5720 5715 5711 5707 5703 5699 5696 5694 5692 5691 5690 5689 5689 5690 5692 5694 5697 5700 5704 5707 5711 5715 5719 5723 5727
5791 5787 5784 5780 5776 5773 5769 5765 5761 5757 5753 5749 5745 5741 5737 5733 5728 5724 5719 5715 5710 5706 5703 5699 5696 5693 5691 5690 5688 5687 5687 5687 5688 5690 5692 5695 5698 5701 5704 5708 5712 5716 5719
5786 5782 5779 5775 5772 5768 5764 5761 5757 5753 5750 5746 5742 5739 5735 5731 5727 5723 5719 5714 5710 5706 5703 5699 5696 5693 5691 5689 5687 5686 5685 5685 5686 5687 5689 5691 5693 5696 5699 5701 5705 5709 5712
5779 5776 5772 5769 5766 5762 5759 5755 5752 5748 5745 5742 5738 5735 5732 5728 5725 5721 5717 5713 5710 5706 5702 5699 5696 5693 5691 5689 5687 5685 5684 5684 5684 5684 5685 5687 5689 5691 5693 5696 5699 5702 5706
5772 5769 5765 5762 5759 5756 5753 5750 5746 5743 5740 5736 5733 5730 5727 5724 5721 5718 5715 5711 5708 5705 5701 5698 5695 5693 5690 5688 5686 5685 5684 5683 5682 5682 5683 5683 5685 5686 5689 5691 5693 5696 5699
5765 5761 5758 5755 5752 5749 5746 5743 5741 5738 5734 5731 5728 5725 5722 5720 5717 5714 5711 5709 5706 5703 5700 5697 5694 5692 5689 5687 5686 5684 5683 5681 5681 5680 5681 5681 5682 5683 5685 5687 5689 5691 5694
5757 5753 5750 5747 5744 5741 5739 5736 5733 5731 5729 5726 5723 5719 5717 5714 5712 5709 5707 5705 5702 5699 5697 5694 5692 5690 5688 5686 5684 5682 5681 5680 5679 5678 5678 5678 5679 5680 5681 5683 5685 5687 5689
5749 5746 5742 5739 5737 5734 5731 5728 5726 5723 5721 5719 5716 5713 5711 5708 5706 5703 5701 5699 5697 5695 5693 5691 5688 5686 5685 5683 5681 5680 5679 5678 5677 5676 5676 5676 5676 5677 5678 5679 5681 5683 5685
5740 5737 5734 5731 5729 5726 5723 5721 5718 5715 5713 5710 5708 5705 5703 5701 5699 5696 5694 5692 5691 5689 5687 5685 5684 5682 5680 5679 5677 5676 5675 5675 5674 5673 5673 5673 5673 5674 5675 5676 5677 5679 5681
5731 5728 5726 5723 5721 5718 5715 5712 5710 5707 5705 5702 5699 5697 5694 5692 5691 5688 5686 5685 5683 5681 5680 5678 5677 5676 5674 5673 5672 5671 5671 5670 5670 5669 5669 5669 5670 5670 5671 5672 5673 5675 5677
5722 5719 5717 5714 5712 5709 5706 5704 5701 5698 5696 5693 5690 5688 5685 5683 5681 5679 5677 5675 5674 5672 5671 5670 5669 5668 5667 5666 5665 5665 5664 5664 5664 5664 5664 5664 5665 5665 5666 5668 5669 5670 5672
5712 5709 5707 5704 5702 5699 5697 5694 5691 5688 5686 5683 5680 5678 5675 5672 5670 5668 5666 5664 5662 5661 5660 5659 5659 5658 5657 5656 5656 5656 5656 5656 5656 5656 5657 5657 5658 5659 5660 5661 5663 5665 5666
5701 5699 5697 5694 5692 5689 5686 5683 5680 5677 5675 5672 5669 5666 5663 5661 5658 5656 5653 5651 5650 5648 5647 5646 5646 5645 5645 5645 5645 5645 5645 5646 5646 5647 5648 5649 5650 5651 5652 5654 5655 5657 5659
5690 5688 5686 5683 5680 5678 5675 5672 5669 5666 5663 5660 5656 5653 5650 5647 5644 5642 5639 5637 5635 5633 5632 5630 5630 5630 5630 5630 5631 5631 5632 5633 5634 5635 5636 5638 5639 5641 5642 5644 5646 5648 5650
5679 5676 5674 5671 5668 5665 5662 5659 5656 5652 5649 5646 5642 5639 5635 5632 5629 5626 5623 5620 5618 5616 5614 5613 5611 5611 5611 5612 5613 5614 5615 5617 5619 5620 5623 5625 5627 5629 5631 5633 5635 5638 5640